Flag Weather past 2 weeks in Ocala, Florida, U.S.A.

Now
64 °F

Sunny.


Feels Like: 64 °F
Forecast: 38 / 62 °F
Wind: 12 mph from Northwest

Location: Ocala Municipal

Current Time: Nov 27, 2014 at 2:52:43 PM

Latest Report: Nov 27, 2014 at 1:50 PM


Visibility: 10 mi

Pressure: 30.20 "Hg

Humidity: 34%

Dew point: 36 °F

Location of OcalaLocation

Historic Weather in Ocala — Graph

°F

Ocala temperature yesterday

Maximum temperature yesterday: 66 °F (at 12:15 AM)
Minimum temperature yesterday: 41 °F (at 11:15 PM)
Average temperature yesterday: 53 °F

Past Weeks' High & Low Weather Summary

 TemperatureHumidityPressure
High86 °F (Nov 24, 12:50 PM)94% (Nov 13, 5:35 AM)30.44 "Hg (Nov 13, 5:35 AM)
Low28 °F (Nov 20, 5:35 AM)20% (Nov 20, 1:50 PM)29.85 "Hg (Nov 26, 12:55 AM)
Average58 °F77%30.12 "Hg
* Reported Nov 12 1:50 PM — Nov 27 1:50 PM, Ocala, Weather by CustomWeather, © 2014

Note: Actual official high and low records may vary slightly from our data, if they occured in-between our weather recording intervals... More about our weather records

Advertising

Ocala weather history for previous 24 hours

 ConditionsComfort  
Time TempWeatherWind HumidityBarometerVisibility
1:50 PM
Nov 27
64 °FSunny.12 mph34%30.20 "Hg10 mi
12:50 PM64 °FSunny.12 mph37%30.23 "Hg10 mi
11:50 AM64 °FSunny.12 mph40%30.26 "Hg10 mi
10:50 AM63 °FSunny.12 mph49%30.28 "Hg10 mi
9:50 AM57 °FSunny.12 mph72%30.29 "Hg10 mi
8:50 AM52 °FSunny.3 mph82%30.28 "Hg10 mi
7:50 AM41 °FSunny.No wind87%30.25 "Hg10 mi
6:50 AM39 °FClear.No wind87%30.25 "Hg10 mi
6:35 AM37 °FClear.No wind93%30.25 "Hg10 mi
6:15 AM37 °FClear.No wind93%30.24 "Hg10 mi
5:55 AM37 °FClear.No wind93%30.24 "Hg10 mi
5:35 AM37 °FClear.No wind93%30.24 "Hg10 mi
5:15 AM37 °FClear.No wind93%30.24 "Hg10 mi
4:55 AM37 °FClear.3 mph93%30.24 "Hg10 mi
4:35 AM37 °FClear.3 mph93%30.24 "Hg10 mi
4:15 AM37 °FClear.3 mph93%30.24 "Hg10 mi
3:55 AM37 °FClear.3 mph93%30.24 "Hg10 mi
3:35 AM37 °FClear.No wind93%30.24 "Hg10 mi
3:15 AM37 °FClear.No wind93%30.24 "Hg10 mi
2:55 AM39 °FClear.No wind87%30.24 "Hg10 mi
2:35 AM39 °FClear.No wind87%30.25 "Hg10 mi
2:15 AM39 °FClear.No wind87%30.24 "Hg10 mi
1:55 AM39 °FClear.No wind93%30.24 "Hg10 mi
1:35 AM39 °FClear.No wind93%30.24 "Hg10 mi
1:15 AM41 °FClear.No wind87%30.24 "Hg10 mi
12:55 AM41 °FClear.No wind87%30.23 "Hg10 mi
12:35 AM45 °FClear.No wind76%30.23 "Hg10 mi
12:15 AM45 °FClear.3 mph76%30.23 "Hg10 mi
11:55 PM
Nov 26
43 °FClear.5 mph81%30.23 "Hg10 mi
11:35 PM43 °FClear.3 mph81%30.22 "Hg10 mi
11:15 PM41 °FClear.5 mph87%30.23 "Hg10 mi
10:55 PM43 °FClear.No wind87%30.21 "Hg10 mi
10:35 PM43 °FClear.No wind87%30.22 "Hg10 mi
9:55 PM43 °FClear.No wind87%30.22 "Hg10 mi
9:35 PM43 °FClear.No wind87%30.22 "Hg10 mi
9:15 PM43 °FClear.No wind87%30.21 "Hg10 mi
8:55 PM45 °FClear.No wind87%30.21 "Hg10 mi
8:35 PM45 °FClear.No wind93%30.20 "Hg10 mi
8:15 PM46 °FClear.No wind82%30.20 "Hg10 mi
7:55 PM46 °FClear.No wind87%30.20 "Hg10 mi
6:50 PM48 °FClear.No wind82%30.19 "Hg10 mi
5:50 PM54 °FClear.5 mph67%30.17 "Hg10 mi
4:50 PM61 °FSunny.6 mph45%30.16 "Hg10 mi
3:50 PM63 °FSunny.9 mph49%30.15 "Hg10 mi
2:50 PM63 °FPassing clouds.9 mph49%30.13 "Hg10 mi
Weather by CustomWeather, © 2014

See weather overviewHow to use our weather pages